Printer-friendly version

IAU Minor Planet Center

Minor Planet Center

MPEC 2001-T55: 2001 TE2

The following Minor Planet Electronic Circular may be linked-to from your own Web pages, but must not otherwise be redistributed electronically.


Read MPEC 2001-T54 Read MPEC 2001-T56


M.P.E.C. 2001-T55                                Issued 2001 Oct. 13, 23:38 UT

     The Minor Planet Electronic Circulars contain information on unusual
         minor planets and routine data on comets.  They are published
   on behalf of Commission 20 of the International Astronomical Union by the
          Minor Planet Center, Smithsonian Astrophysical Observatory,
                          Cambridge, MA 02138, U.S.A.

             Prepared using the Tamkin Foundation Computer Network

                              MPC@CFA.HARVARD.EDU
          URL http://cfa-www.harvard.edu/iau/mpc.html  ISSN 1523-6714

                                   2001 TE2

Observations:
     K01T02E* C2001 10 12.48293 02 40 53.74 -01 51 44.6          20.1        608
     K01T02E  C2001 10 12.49304 02 40 52.47 -01 52 04.0          19.9        608
     K01T02E  C2001 10 12.50370 02 40 51.21 -01 52 24.2          20.7        608
     K01T02E  C2001 10 13.03612 02 39 50.34 -02 09 31.3          18.9 V      557
     K01T02E  C2001 10 13.03837 02 39 50.08 -02 09 35.7                      557
     K01T02E  C2001 10 13.07773 02 39 45.27 -02 10 50.0          18.0 R      046
     K01T02E  C2001 10 13.07900 02 39 45.13 -02 10 53.0                      046
     K01T02E  C2001 10 13.08029 02 39 44.92 -02 10 54.8                      046
     K01T02E  C2001 10 13.08197 02 39 44.73 -02 10 58.5                      046
     K01T02E  C2001 10 13.08503 02 39 44.40 -02 11 04.5                      046
     K01T02E  C2001 10 13.08630 02 39 44.16 -02 11 06.4          17.9 R      046
     K01T02E  C2001 10 13.88182 02 38 12.91 -02 36 20.0                      046
     K01T02E  C2001 10 13.88425 02 38 12.47 -02 36 26.1                      046
     K01T02E  C2001 10 13.88791 02 38 12.07 -02 36 32.8                      046
     K01T02E  C2001 10 13.88918 02 38 11.69 -02 36 34.8                      046

Observer details:
046 Klet.  Observers J. Ticha, M. Tichy, P. Jelinek.  0.57-m f/5.2 reflector
    + CCD.
557 Ondrejov.  Observers P. Pravec, P. Kusnirak.   0.65-m f/3.6 reflector
    + CCD.
608 Haleakala-NEAT/MSSS.  Observers E. F. Helin, S. Pravdo, K. Lawrence,
    P. Kervin, R. Maeda, J. Africano, M. Hicks.  1.2-m reflector + CCD.

Orbital elements:
2001 TE2
Epoch 2001 Sept. 28.0 TT = JDT 2452180.5                Marsden
M 157.98742              (2000.0)            P               Q
n   0.86778282     Peri.   38.14112     -0.86387355     +0.50335888
a   1.0885842      Node   172.01493     -0.48895221     -0.82902947
e   0.1931904      Incl.    7.76566     -0.12102987     -0.24359798
P   1.14           H   20.0           G   0.15
From 14 observations 2001 Oct. 12-13.

Ephemeris:
2001 TE2                 a,e,i = 1.09, 0.19, 8                   q = 0.8783
Date    TT    R. A. (2000) Decl.     Delta      r     Elong.  Phase     V
2001 10 08    02 48.72   +00 30.9    0.327    1.295   151.0    22.0    19.2
2001 10 18    02 29.70   -04 44.3    0.317    1.298   159.6    15.5    18.9
2001 10 28    02 07.30   -09 18.0    0.323    1.299   157.6    16.9    19.0
2001 11 07    01 46.44   -12 22.3    0.345    1.295   147.5    24.3    19.4
2001 11 17    01 30.93   -13 45.1    0.378    1.289   136.2    32.1    19.8
2001 11 27    01 22.50   -13 41.5    0.420    1.279   125.9    38.7    20.2
2001 12 07    01 20.84   -12 36.2    0.465    1.265   116.9    43.9    20.5
2001 12 17    01 24.89   -10 49.2    0.511    1.249   109.2    48.1    20.8
2001 12 27    01 33.60   -08 34.0    0.555    1.230   102.5    51.3    21.1
2002 01 06    01 45.96   -06 00.2    0.597    1.207    96.6    54.0    21.3
2002 01 16    02 01.33   -03 13.8    0.633    1.182    91.4    56.3    21.4
2002 01 26    02 19.26   -00 18.8    0.663    1.155    86.7    58.3    21.5
2002 02 05    02 39.41   +02 41.2    0.686    1.125    82.5    60.3    21.6
2002 02 15    03 01.65   +05 43.8    0.702    1.094    78.8    62.3    21.6
2002 02 25    03 25.91   +08 46.5    0.709    1.062    75.4    64.4    21.7
2002 03 07    03 52.13   +11 46.9    0.708    1.030    72.4    66.7    21.7
2002 03 17    04 20.38   +14 43.0    0.698    0.998    69.7    69.3    21.6
2002 03 27    04 50.71   +17 32.6    0.679    0.968    67.4    72.2    21.6
2002 04 06    05 23.09   +20 13.4    0.653    0.940    65.4    75.5    21.6
2002 04 16    05 57.60   +22 43.8    0.620    0.916    63.6    79.0    21.5
2002 04 26    06 34.26   +25 01.7    0.580    0.897    62.2    82.9    21.5
2002 05 06    07 13.03   +27 05.6    0.536    0.884    61.1    86.8    21.4
2002 05 16    07 54.07   +28 53.1    0.490    0.879    60.3    90.7    21.4
2002 05 26    08 37.60   +30 20.4    0.443    0.880    60.1    94.1    21.3
2002 06 05    09 23.96   +31 20.4    0.397    0.889    60.5    96.6    21.2
2002 06 15    10 13.82   +31 40.0    0.354    0.905    61.9    97.9    21.1
2002 06 25    11 07.71   +30 59.3    0.315    0.926    64.6    97.5    20.8
2002 07 05    12 05.66   +28 51.0    0.283    0.952    68.8    95.1    20.5
2002 07 15    13 06.86   +24 46.1    0.259    0.981    74.8    90.5    20.2
2002 07 25    14 09.19   +18 35.3    0.245    1.012    82.2    83.9    19.9
2002 08 04    15 09.75   +10 48.5    0.245    1.044    90.1    76.3    19.7
2002 08 14    16 06.34   +02 34.8    0.258    1.077    97.3    69.0    19.6
2002 08 24    16 57.88   -04 50.4    0.286    1.108   102.5    63.0    19.7
2002 09 03    17 44.24   -10 45.1    0.325    1.139   105.3    58.7    20.0
2002 09 13    18 26.12   -15 02.5    0.374    1.167   106.2    55.9    20.2
2002 09 23    19 04.32   -17 53.0    0.431    1.194   105.5    54.1    20.5
2002 10 03    19 39.46   -19 32.6    0.495    1.218   103.8    53.0    20.8
2002 10 13    20 12.23   -20 15.6    0.564    1.239   101.3    52.2    21.1
2002 10 23    20 43.09   -20 13.7    0.635    1.257    98.4    51.6    21.4
2002 11 02    21 12.36   -19 36.2    0.710    1.272    95.2    51.0    21.7
2002 11 12    21 40.42   -18 29.7    0.785    1.283    91.9    50.4    21.9

Brian G. Marsden             (C) Copyright 2001 MPC           M.P.E.C. 2001-T55

Read MPEC 2001-T54 Read MPEC 2001-T56


Our Web policy. Index to the CBAT/MPC/ICQ pages.


Valid HTML 4.01!